Location: Tamazert
(32.6352°N, 5.2072°W)
Time: 18:00:26
(UTC+00:00)

Courier 1B - Pass Details

Date: 07 October 2022
Orbit: 962 x 1209 km, 28.3° (Epoch: 27 November)

Event Time Altitude Azimuth Distance (km) Brightness Sun altitude
Rises 18:52:33 0° 266° (W) 3,862 12.7 -12.3°
Reaches altitude 10° 18:56:28 10° 247° (WSW) 2,851 11.0 -13.2°
Maximum altitude 19:00:33 16° 210° (SSW) 2,356 9.9 -14.0°
Drops below altitude 10° 19:04:30 10° 173° (S) 2,752 9.8 -14.8°
Sets 19:08:12 0° 153° (SSE) 3,664 10.2 -15.6°
